Location: B�rgermoos
(47.6500°N, 9.0667°E)
Time: 08:32:54
(UTC+00:00)

Okean 1 Rocket - Pass Details

Date: 18 September 2020
Orbit: 605 x 635 km, 82.5° (Epoch: 27 October)

Event Time Altitude Azimuth Distance (km) Brightness Sun altitude
Exits shadow 19:51:19 78° 165° (SSE) 656 3.0 -23.6°
Maximum altitude 19:51:36 85° 100° (E) 645 3.0 -23.6°
Drops below altitude 10° 19:56:08 10° 10° (N) 2,034 5.9 -24.3°
Sets 19:58:23 0° 10° (N) 2,947 6.8 -24.6°
